[[{"header":{"parameterUnit":"m.s-1","parameterCategory":1,"la1":30.2991,"la2":30.254,"lo1":-89.0895,"lo2":-89.0444,"dy":0.0017,"dx":0.0017,"nx":28,"ny":28,"refTime":"2024-06-25T09:00:00:Z","depth":0,"parameterNumber":2,"parameterNumberName":"U-component_of_WINDS"},"data":[0,0,0,0,0,0,0,0,0,0,0,0,0,0,0,0,0,0,0,0,0,0,0,0,0,0,0,0,0,0,0,0,0,0,0,0,0,0,0,0,0,0,0,0,0,0,0,0,0,0,0,0,0,0,0,0,0,0,2.7468,2.7468,0,2.7458,2.7458,2.7458,2.7365,2.7363,2.736,2.7358,2.7355,2.7357,2.7359,0,0,0,0,0,0,0,0,0,0,0,0,0,2.7416,2.7418,2.7468,2.7468,2.7468,2.7458,2.7458,2.7458,2.7365,2.7363,2.736,2.7357,2.7355,2.7357,2.736,0,0,0,0,0,0,0,0,0,0,0,0,0,2.7426,2.7418,2.7468,2.7421,2.7416,2.7458,2.7458,2.7458,2.7366,2.7362,2.7359,2.7356,2.7354,2.7357,2.736,2.7449,0,0,2.7369,2.7371,0,0,0,0,0,0,0,0,2.7426,2.7428,2.7428,2.7424,2.7419,2.7409,2.7438,2.7455,2.7367,2.7385,2.7358,2.7354,2.7377,2.7378,2.7383,2.7449,2.7449,2.737,2.7372,2.7373,2.7374,0,0,0,0,0,0,0,2.7425,2.7428,2.7464,2.7428,2.7423,2.7402,2.74,2.7441,2.7401,2.7383,2.7377,2.7376,2.7374,2.7381,2.7383,2.7449,2.737,2.7372,2.7374,2.7376,2.7588,2.7592,0,0,0,0,0,0,2.743,2.7428,2.7465,2.7464,2.7414,2.7406,2.7403,2.7416,2.74,2.7394,2.7379,2.7372,2.7377,2.7379,2.7382,2.7487,2.7373,2.7376,2.7378,2.7585,2.7589,2.7593,0,0,0,0,0,0,2.7429,2.7434,2.7465,2.7444,2.7447,2.7411,2.7426,2.7418,2.7424,2.7397,2.739,2.7393,2.7374,2.7378,2.7433,2.7485,2.7377,2.738,2.758,2.7586,2.7591,2.7696,0,0,0,0,0,0,2.7428,2.7434,2.7466,2.7445,2.7448,2.7514,2.7429,2.742,2.7429,2.742,2.7408,2.7403,2.7372,2.7429,2.7436,2.7488,2.7383,2.7575,2.7583,2.759,2.7688,2.7705,2.7719,0,0,0,0,0,2.7427,2.7497,2.7468,2.7473,2.7486,2.7517,2.7519,2.7479,2.7434,2.7467,2.7449,2.7404,2.7478,2.7435,2.7443,2.7496,2.7572,2.7581,2.7589,2.7681,2.7701,2.7719,0,0,0,0,0,0,2.7528,2.7494,2.7461,2.7527,2.7525,2.7501,2.7541,2.7502,2.7515,2.7506,2.7459,2.7457,2.752,2.7513,2.7466,2.7582,2.7517,2.7528,2.7585,2.7604,2.7619,2.762,2.7385,0,0,0,0,0,2.7557,2.7582,2.7552,2.7613,2.7614,2.7578,2.759,2.7559,2.7557,2.7557,2.7543,2.7545,2.7568,2.7585,2.7606,2.7686,2.7683,2.7726,2.7742,2.7755,2.7765,2.7809,2.7829,2.7621,2.7621,2.7621,0,0,2.7619,2.7604,2.7623,2.7633,2.7628,2.7658,2.7578,2.7613,2.7636,2.7563,2.7613,2.7604,2.7603,2.7671,2.7701,2.7668,2.7822,2.7766,2.7776,2.778,2.782,2.784,2.7857,2.7627,2.7626,2.7625,0,0,2.7748,2.7737,2.7788,2.7784,2.7777,2.7753,2.7765,2.7747,2.7737,2.7786,2.7733,2.776,2.7802,2.7804,2.781,2.794,2.79,2.7948,2.803,2.8074,2.809,2.8104,2.8153,2.8171,2.7958,2.7958,2.7958,0,2.7827,2.7867,2.7819,2.7857,2.7865,2.7797,2.785,2.7849,2.7851,2.7858,2.782,2.7871,2.7866,2.7935,2.7966,2.7973,2.7988,2.795,2.8091,2.8105,2.8118,2.8163,2.8181,2.7964,2.7963,2.7963,2.7962,0,2.7965,2.7994,2.8036,2.8036,2.8048,2.8094,2.8055,2.8073,2.8042,2.8022,2.8075,2.8066,2.8084,2.8097,2.8068,2.8163,2.8143,2.8099,2.8033,2.8144,2.8187,2.8204,2.7973,2.7971,2.7969,2.7967,0,0,2.8159,2.8131,2.8148,2.8148,2.8135,2.8158,2.8201,2.8216,2.8233,2.8236,2.8273,2.831,2.8269,2.8277,2.8246,2.8284,2.839,2.8236,2.8235,2.8267,2.8497,2.8532,2.8553,2.8362,2.8366,2.8368,2.8498,0,2.8284,2.8354,2.8312,2.8389,2.8417,2.8353,2.8391,2.8389,2.8372,2.8395,2.8377,2.8405,2.8347,2.8352,2.8386,2.837,2.8436,2.836,2.84,2.8402,2.8404,2.8574,2.8611,2.8734,2.8514,2.8517,2.8519,0,2.844,2.8447,2.8527,2.8509,2.8519,2.8554,2.8565,2.8586,2.8584,2.8569,2.8577,2.8538,2.8582,2.8515,2.8577,2.8526,2.8539,2.8534,2.8538,2.8542,2.8469,2.8586,2.8772,2.8792,2.8544,2.8542,2.854,0,2.8576,2.8606,2.8657,2.8659,2.8639,2.8666,2.8659,2.8652,2.8664,2.8675,2.8682,2.8699,2.8709,2.8724,2.8691,2.8645,2.8758,2.8688,2.875,2.8751,2.8779,2.8778,2.8973,2.8784,2.8784,2.8783,2.8783,0,2.8722,2.8773,2.8718,2.8751,2.8807,2.876,2.8818,2.8805,2.88,2.883,2.8777,2.8807,2.8761,2.8788,2.8763,2.8819,2.8823,2.8815,2.8808,2.8821,2.8823,2.8831,2.8823,2.8788,2.8787,2.8786,2.8785,0,2.8884,2.8849,2.8901,2.8878,2.8873,2.8916,2.8897,2.8928,2.8906,2.8946,2.8952,2.892,2.8949,2.8917,2.8944,2.8927,2.9004,2.8983,2.9004,2.8999,2.9064,2.9059,2.9273,2.9299,2.9092,2.9094,2.9095,0,2.8981,2.9019,2.8998,2.9014,2.901,2.9035,2.9046,2.9002,2.9016,2.9016,2.9047,2.907,2.9087,2.9136,2.9117,2.9138,2.9119,2.9192,2.9122,2.9134,2.9123,2.9122,2.9127,2.9208,2.921,2.9212,2.9214,0,2.9157,2.9137,2.9154,2.9165,2.918,2.9187,2.9191,2.9207,2.9161,2.918,2.9207,2.922,2.9246,2.9272,2.9287,2.9283,2.9243,2.9236,2.9252,2.9266,2.9278,2.9275,2.9046,2.9232,2.923,2.9229,2.9228,2.9227,2.929,2.9322,2.9312,2.9334,2.9331,2.9336,2.9363,2.9344,2.9365,2.9381,2.9354,2.9389,2.9386,2.9402,2.9403,2.9432,2.9401,2.9423,2.9429,2.9436,2.9447,2.9271,2.9434,2.9433,2.9433,2.9432,2.9432,0,2.9466,2.9456,2.9475,2.9481,2.9499,2.9455,2.9457,2.9475,2.9505,2.9505,2.9522,2.9554,2.9578,2.956,2.9581,2.9608,2.959,2.9615,2.9614,2.9614,2.9472,2.9457,2.9629,2.9629,2.9629,2.9629,2.9629,2.9629,2.9559,2.961,2.9589,2.9639,2.963,2.9661,2.9666,2.9671,2.9671,2.9708,2.9727,2.9714,2.9708,2.9727,2.9748,2.9743,2.9754,2.9787,2.9775,2.9643,2.9624,2.9606,2.9591,2.9789,2.9789,2.9915,2.9916,2.9917]},{"header":{"parameterUnit":"m.s-1","parameterCategory":1,"la1":30.2991,"la2":30.254,"lo1":-89.0895,"lo2":-89.0444,"dy":0.0017,"dx":0.0017,"nx":28,"ny":28,"refTime":"2024-06-25T09:00:00:Z","depth":0,"parameterNumber":3,"parameterNumberName":"V-component_of_WINDS"},"data":[0,0,0,0,0,0,0,0,0,0,0,0,0,0,0,0,0,0,0,0,0,0,0,0,0,0,0,0,0,0,0,0,0,0,0,0,0,0,0,0,0,0,0,0,0,0,0,0,0,0,0,0,0,0,0,0,0,0,1.1965,1.1964,0,1.185,1.1849,1.1847,1.1769,1.1768,1.1768,1.1767,1.1642,1.1639,1.1636,0,0,0,0,0,0,0,0,0,0,0,0,0,1.2109,1.2107,1.1965,1.1964,1.1962,1.185,1.1849,1.1847,1.1769,1.1768,1.1767,1.1767,1.1643,1.1639,1.1636,0,0,0,0,0,0,0,0,0,0,0,0,0,1.2025,1.2106,1.1965,1.191,1.1904,1.1851,1.1849,1.1847,1.1769,1.1768,1.1767,1.1766,1.1644,1.164,1.1635,1.1626,0,0,1.1623,1.1621,0,0,0,0,0,0,0,0,1.203,1.202,1.1919,1.1913,1.1907,1.1823,1.1853,1.1772,1.1769,1.182,1.1767,1.1766,1.1702,1.1693,1.1673,1.162,1.1615,1.1622,1.162,1.1618,1.1617,0,0,0,0,0,0,0,1.2036,1.2025,1.1919,1.1918,1.191,1.1888,1.1875,1.1838,1.1767,1.1815,1.1809,1.1797,1.1698,1.1677,1.167,1.1613,1.1622,1.1619,1.1616,1.1614,1.1545,1.1545,0,0,0,0,0,0,1.2052,1.203,1.1923,1.1916,1.1968,1.1886,1.1872,1.185,1.1767,1.1754,1.1798,1.1794,1.1685,1.1675,1.1665,1.1647,1.1618,1.1614,1.1611,1.1544,1.1545,1.1546,0,0,0,0,0,0,1.2055,1.2043,1.1927,1.1971,1.1955,1.1885,1.1861,1.1849,1.1828,1.1754,1.174,1.179,1.1684,1.1671,1.1637,1.1642,1.1612,1.1608,1.1543,1.1544,1.1545,1.1613,0,0,0,0,0,0,1.206,1.2045,1.2042,1.1972,1.1953,1.1904,1.1862,1.1847,1.1821,1.1815,1.1743,1.173,1.1682,1.1643,1.1632,1.1636,1.1605,1.1542,1.1544,1.1545,1.161,1.1617,1.1622,0,0,0,0,0,1.2065,1.2064,1.2043,1.203,1.1949,1.1904,1.1893,1.184,1.1822,1.1818,1.1771,1.1732,1.1644,1.164,1.1627,1.163,1.1542,1.1543,1.1545,1.1608,1.1615,1.1622,0,0,0,0,0,0,1.2134,1.2054,1.2029,1.2006,1.1963,1.1891,1.1884,1.185,1.1809,1.1804,1.1738,1.1722,1.1695,1.1658,1.1657,1.1615,1.1588,1.1587,1.164,1.1647,1.1652,1.1661,1.1601,0,0,0,0,0,1.2148,1.2121,1.2051,1.2037,1.2017,1.1955,1.1933,1.1897,1.1848,1.1828,1.1778,1.1731,1.1692,1.1667,1.1627,1.1605,1.1587,1.16,1.1606,1.1611,1.161,1.1594,1.1599,1.1551,1.1551,1.1551,0,0,1.2173,1.2126,1.2113,1.205,1.2012,1.1983,1.194,1.1911,1.1888,1.1823,1.1788,1.175,1.1692,1.1664,1.1648,1.1632,1.162,1.1613,1.1618,1.1614,1.1596,1.1601,1.1605,1.1552,1.1552,1.1552,0,0,1.2205,1.2168,1.2152,1.2116,1.206,1.2019,1.2015,1.1948,1.1921,1.1886,1.1836,1.1807,1.1742,1.1702,1.1674,1.1691,1.1654,1.168,1.171,1.1695,1.1699,1.1702,1.1707,1.1709,1.168,1.168,1.168,0,1.2244,1.2201,1.2148,1.2122,1.2095,1.2038,1.202,1.1987,1.192,1.1901,1.1885,1.1802,1.1759,1.172,1.1725,1.1704,1.1695,1.1687,1.1703,1.1706,1.1707,1.1711,1.1713,1.1684,1.1683,1.1683,1.1683,0,1.225,1.2221,1.2214,1.2154,1.2126,1.2105,1.2046,1.2024,1.199,1.1949,1.1913,1.186,1.1808,1.1796,1.1761,1.1751,1.1743,1.1716,1.1687,1.1716,1.1719,1.172,1.1689,1.1687,1.1686,1.1685,0,0,1.2321,1.2233,1.2231,1.2203,1.2138,1.2113,1.2088,1.2039,1.2021,1.1977,1.1952,1.1899,1.1874,1.1842,1.1802,1.1789,1.1805,1.1763,1.176,1.1771,1.1789,1.1809,1.1811,1.178,1.178,1.1781,1.1793,0,1.2342,1.2297,1.2249,1.222,1.2191,1.2136,1.2114,1.207,1.2032,1.2,1.1956,1.1919,1.1889,1.1869,1.1854,1.1806,1.1807,1.1805,1.1754,1.1753,1.177,1.1813,1.1834,1.1848,1.1794,1.1794,1.1794,0,1.236,1.2322,1.2291,1.2228,1.2214,1.2195,1.2147,1.2118,1.2066,1.2039,1.2004,1.1962,1.193,1.1906,1.186,1.186,1.1836,1.1809,1.1808,1.18,1.1775,1.1804,1.1851,1.1853,1.1795,1.1795,1.1795,0,1.2414,1.2354,1.2327,1.2305,1.2231,1.2219,1.2187,1.2135,1.2109,1.2066,1.2048,1.2001,1.1975,1.1938,1.1884,1.1871,1.1843,1.1814,1.1817,1.1818,1.1812,1.1813,1.1855,1.18,1.18,1.18,1.18,0,1.2442,1.2424,1.235,1.2334,1.2312,1.2256,1.2235,1.2198,1.2152,1.2125,1.2075,1.205,1.1981,1.1947,1.1904,1.1872,1.186,1.1836,1.1824,1.1839,1.1842,1.1822,1.1819,1.18,1.18,1.18,1.18,0,1.2497,1.2447,1.2415,1.2348,1.2331,1.2318,1.226,1.224,1.22,1.2166,1.2155,1.209,1.2048,1.1991,1.193,1.1901,1.1874,1.1857,1.1892,1.1885,1.1891,1.189,1.1919,1.1919,1.1867,1.1867,1.1868,0,1.2518,1.2503,1.2436,1.2416,1.2387,1.2355,1.2329,1.2273,1.2247,1.2187,1.2175,1.2129,1.209,1.2025,1.197,1.1923,1.1903,1.1917,1.1896,1.1911,1.1902,1.1903,1.19,1.1922,1.1922,1.1923,1.1924,0,1.2558,1.2535,1.2501,1.2458,1.2429,1.2392,1.2352,1.2337,1.2272,1.2245,1.2203,1.2173,1.2113,1.2067,1.2013,1.1977,1.1939,1.1931,1.1929,1.1944,1.1964,1.1952,1.1905,1.193,1.193,1.1929,1.1929,1.1929,1.2595,1.258,1.2531,1.2494,1.2459,1.2423,1.2402,1.2359,1.2324,1.2273,1.2241,1.22,1.2147,1.2071,1.2037,1.2002,1.1986,1.1984,1.1983,1.1982,1.1987,1.1972,1.1992,1.1991,1.1991,1.1991,1.1991,0,1.2632,1.2599,1.2566,1.2513,1.2484,1.2454,1.2408,1.2385,1.235,1.2306,1.2269,1.222,1.2176,1.2119,1.207,1.2053,1.2034,1.2041,1.2041,1.2033,1.2004,1.201,1.2058,1.2058,1.2058,1.2058,1.2058,1.2058,1.2648,1.262,1.2591,1.2544,1.2509,1.2471,1.2448,1.2413,1.2378,1.2326,1.229,1.2255,1.2204,1.2151,1.2109,1.2093,1.2076,1.2089,1.2068,1.2041,1.2035,1.203,1.2035,1.2087,1.2087,1.2099,1.21,1.21]}]]